Flag for Russia Weather past 2 weeks in Kemerovo, Russia

Now
54 °F

Clear.


Feels Like: 52 °F
Forecast: 48 / 62 °F
Wind: 6 mph from West

Location: Kemerovo

Current Time: Apr 26, 2015 at 10:49:13 PM

Latest Report: Apr 26, 2015 at 10:00 PM


Visibility: 10 mi

Pressure: 29.56 "Hg

Humidity: 54%

Dew point: 37 °F

Location of KemerovoLocation

Historic Weather in Kemerovo — Graph

°F

Kemerovo temperature yesterday

Maximum temperature yesterday: 57 °F (at 3:00 PM)
Minimum temperature yesterday: 39 °F (at 6:00 AM)
Average temperature yesterday: 49 °F

Past Weeks' High & Low Weather Summary

 TemperatureHumidityPressure
High72 °F (Apr 22, 2:00 PM)100% (Apr 13, 6:00 AM)30.21 "Hg (Apr 13, 6:00 AM)
Low27 °F (Apr 17, 6:00 AM)28% (Apr 18, 4:00 PM)29.50 "Hg (Apr 26, 6:00 PM)
Average47 °F63%29.86 "Hg
* Reported Apr 11 9:00 PM — Apr 26 9:30 PM, Kemerovo, Weather by CustomWeather, © 2015

Note: Actual official high and low records may vary slightly from our data, if they occured in-between our weather recording intervals... More about our weather records

Advertising

Kemerovo weather history for previous 24 hours

 ConditionsComfort  
Time TempWeatherWind HumidityBarometerVisibility
9:30 PM
Sun, Apr 26
54 °FSunny.8 mph54%29.56 "Hg10 mi
9:00 PM54 °FSunny.10 mph54%29.53 "Hg10 mi
8:30 PM57 °FSunny.8 mph48%29.53 "Hg10 mi
8:00 PM57 °FSunny.10 mph48%29.53 "Hg10 mi
7:30 PM59 °FSunny.13 mph42%29.50 "Hg10 mi
7:00 PM59 °FSunny.13 mph42%29.50 "Hg10 mi
6:30 PM59 °FSunny.13 mph42%29.50 "Hg10 mi
6:00 PM59 °FSunny.15 mph42%29.50 "Hg10 mi
5:30 PM59 °FSunny.13 mph42%29.53 "Hg10 mi
5:00 PM59 °FSunny.13 mph42%29.53 "Hg10 mi
4:30 PM59 °FSunny.13 mph42%29.53 "Hg10 mi
4:00 PM59 °FSunny.13 mph42%29.53 "Hg10 mi
3:30 PM57 °FSunny.13 mph44%29.53 "Hg10 mi
3:00 PM57 °FCloudy.15 mph44%29.53 "HgN/A
2:30 PM55 °FCloudy.17 mph47%29.56 "HgN/A
2:00 PM57 °FCloudy.17 mph44%29.56 "HgN/A
1:30 PM55 °FCloudy.17 mph47%29.56 "HgN/A
1:00 PM55 °FCloudy.17 mph47%29.56 "HgN/A
12:30 PM55 °FCloudy.15 mph44%29.56 "HgN/A
12:00 PM55 °FCloudy.15 mph44%29.56 "HgN/A
11:30 AM55 °FCloudy.15 mph51%29.59 "HgN/A
11:00 AM55 °FCloudy.13 mph51%29.59 "HgN/A
10:30 AM50 °FCloudy.15 mph62%29.59 "HgN/A
10:00 AM50 °FSprinkles. Cloudy.13 mph62%29.59 "HgN/A
9:30 AM52 °FCloudy.15 mph47%29.59 "HgN/A
9:00 AM52 °FMore clouds than sun.8 mph47%29.59 "HgN/A
8:30 AM50 °FCloudy.10 mph50%29.62 "HgN/A
8:00 AM50 °FMore clouds than sun.8 mph50%29.62 "HgN/A
7:30 AM48 °FMore clouds than sun.6 mph50%29.62 "HgN/A
7:00 AM48 °FMore clouds than sun.8 mph54%29.65 "HgN/A
6:30 AM46 °FClear.8 mph53%29.62 "Hg10 mi
6:00 AM46 °FClear.10 mph53%29.68 "Hg10 mi
5:30 AM45 °FClear.10 mph57%29.68 "Hg10 mi
5:00 AM45 °FClear.6 mph57%29.68 "Hg10 mi
4:00 AM45 °FClear.10 mph57%29.71 "Hg10 mi
3:30 AM45 °FClear.6 mph49%29.71 "Hg10 mi
3:00 AM45 °FClear.6 mph49%29.71 "Hg10 mi
2:30 AM46 °FClear.6 mph46%29.74 "Hg10 mi
2:00 AM46 °FClear.6 mph46%29.74 "Hg10 mi
1:30 AM46 °FClear.8 mph46%29.77 "Hg10 mi
1:00 AM46 °FClear.8 mph46%29.77 "Hg10 mi
12:30 AM46 °FClear.6 mph50%29.77 "Hg10 mi
12:00 AM46 °FClear.3 mph50%29.77 "Hg10 mi
11:30 PM
Sat, Apr 25
48 °FClear.3 mph43%29.77 "Hg10 mi
11:00 PM48 °FClear.3 mph43%29.80 "Hg10 mi
10:30 PM50 °FClear.3 mph40%29.80 "Hg10 mi
10:00 PM50 °FClear.3 mph40%29.80 "Hg10 mi
Weather by CustomWeather, © 2015

See weather overviewHow to use our weather pages